Find Gao Fen 11-03

NORAD ID: 49492 Int'l Des: 2021-107 Owner: YWZB Country: CN operational
LEOCIRCULARRETROGRADESSO

Live-Position

3D-Globus wird geladen...

Über Gao Fen 11-03

Beschreibung wird geladen...

Nächste Überflüge

Passes for default location (London). Set your location on the main map for personalized predictions.

Höhenverlauf

Loading altitude history...

Zweizeiliger Elementsatz

1 49492U 21107A 26106.71247759 .00002773 00000-0 11810-3 0 9999
2 49492 97.2153 153.2190 0004370 270.0992 89.9745 15.23765367245278
Epoch: 16. Apr. 2026 • Age: 4 hours

Aktueller Status

Höhe 500.9 km
Geschwindigkeit 7.62 km/s
Subsatellitenpunkt 34.76°N, 179.92°W
Startdatum 20. Nov. 2021
Alter 4.4 years
Typ other

Technische Details

Klassifizierung Payload
Masse 3000.00 kg
Trockenmasse 3000.00 kg
Gesamtmasse 3000.00 kg
Länge 2.00 m
Durchmesser 2.00 m
Spannweite 8.00 m
Form Box + 2 Pan
Hersteller CAST/YWZB
Bus-Typ JB-16
Phasenstatus In Orbit
Besitzer/Staat YWZB/CN

Most Searched